Regional Weather Roundup
Issued by NWS State College, PA

Home | Current Version | Previous Version | Graphics & Text | Print | Product List | Glossary Off
Versions: 1 2 3 4 5 6 7 8 9 10 11 12 13 14 15 16 17 18 19 20 21 22 23 24 25 26 27 28 29 30 31 32 33 34 35 36 37 38 39 40 41 42 43 44 45 46 47 48 49 50

000
ASUS41 KCTP 241803
RWRCTP

REGIONAL WEATHER ROUNDUP
NATIONAL WEATHER SERVICE STATE COLLEGE PA
200 PM EDT MON APR 24 2017

Note: "fair" indicates few or no clouds below 12,000 feet with no
significant weather and/or obstructions to visibility.

* = STATION THAT DOES NOT REPORT PRECIPITATION /E.G. RAIN...SNOW...ETC/
    THUNDER OR FOG.

PAZ002>004-007>009-013>016-020>023-029>032-241900-
WESTERN PENNSYLVANIA

CITY           SKY/WX    TMP DP  RH WIND       PRES   REMARKS
ERIE           SUNNY     56  40  55 NE22      30.04F
MEADVILLE      SUNNY     71  21  15 E8        30.02F
FRANKLIN*      SUNNY     70  28  21 SE21      30.04F
NEW CASTLE     FAIR      70  40  33 SE13G22   30.02
BEAVER COUNTY  NOT AVBL
BUTLER*        CLOUDY    63  43  48 SE14G22   30.04S
PITTSBURGH INT CLOUDY    63  42  46 SE16G25   30.02S
PITTSBURGH     CLOUDY    60  38  43 SE15      30.03S
INDIANA*       PTSUNNY   59  41  51 SE13G23   30.10R
LATROBE        MOSUNNY   57  37  47 E14       30.06R
WASHINGTON CO* CLOUDY    57  39  51 E13       30.04S
$$

PAZ004>006-010>012-017>019-024>028-033>037-041-042-045-046-049>053-241900-
CENTRAL PENNSYLVANIA

CITY           SKY/WX    TMP DP  RH WIND       PRES   REMARKS
BRADFORD       SUNNY     68  21  16 SE13G21   30.05F
DUBOIS         CLOUDY    66  25  21 SE15G24   30.05F
CLEARFIELD     CLOUDY    65  31  28 SE8G22    30.09F
JOHNSTOWN      CLOUDY    53  34  48 E8        30.06S
ALTOONA        CLOUDY    56  39  53 SE7       30.09S
STATE COLLEGE  CLOUDY    61  37  41 CALM      30.10F
WILLIAMSPORT   CLOUDY    67  41  38 SE5       30.09F
SELINSGROVE    CLOUDY    61  47  59 NE5       30.11S
FT INDIANTOWN  NOT AVBL
CAPITAL CITY   LGT RAIN  60  45  57 E8        30.09F
HARRISBURG     CLOUDY    61  46  57 E9        30.08F
YORK           CLOUDY    57  45  64 E10       30.08F
$$

PAZ038>040-043-044-047-048-054-055-060>062-067>071-241900-
EASTERN PENNSYLVANIA

CITY           SKY/WX    TMP DP  RH WIND       PRES   REMARKS
SCRANTON       CLOUDY    70  30  22 SE9       30.10S
MOUNT POCONO   CLOUDY    58  37  45 E8        30.13F
ALLENTOWN      CLOUDY    60  45  57 E8        30.12S
QUAKERTOWN*    CLOUDY    57  39  51 E7        30.13S
READING        LGT RAIN  60  46  59 VRB5      30.10F
LANCASTER      LGT RAIN  57  48  72 E7        30.10F
COATESVILLE    CLOUDY    57  41  54 NE5       30.11F
POTTSTOWN      CLOUDY    55  41  59 VRB5      30.13S
BLUE BELL      CLOUDY    54  41  62 E6        30.13S
DOYLESTOWN     LGT RAIN  56  43  61 CALM      30.12F
WILLOW GROVE   NOT AVBL
NORTH PHILA    CLOUDY    58  43  57 E13       30.13F
PHILADELPHIA   CLOUDY    58  41  53 NE13      30.11F
$$




USA.gov is the U.S. government's official web portal to all federal, state and local government web resources and services.